FENGYUN 1C DEB, 32453

Orbit data source: Space-Track

FENGYUN 1C DEB, 32453 is space debris in SSO originally from a launch on Mon, 10 May 1999 UTC launched from the Taiyaun Space Center, China (TSC). Fengyun 1C debris stems from the Chinese weather satellite Fengyun-1C, which was intentionally destroyed by a Chinese anti-satellite missile in 2007. This event dramatically increased the amount of space debris, with thousands of trackable fragments posing hazards to satellites and human spaceflight. The Fengyun 1C debris cloud has become a focal point in discussions about space sustainability and the need for international regulations to prevent the creation of new debris.

Loading next visibility...
Identifier
32453, 1999-025DBR
Orbit
SSO
Country
Flag of CNCN / PRC
Related business
Manufacturer
Unknown
Mission
Spacecraft
Bus & Motor
Unknown
Mass
Unknown
Launch date (UTC)
1999-05-10 (26 years ago)
Launch vehicle
Unknown
Launch site
Taiyaun Space Center, China (TSC)
Object type
Payload
Rocket body
Debris
Shape & HBR
Unknown shape, 0.1 m
Radar Cross Section
Small (<0.1 m²)

Expand to show TLE details & history
Last TLE update: 16 hours ago

TLE from 16 hours ago
0 FENGYUN 1C DEB
1 32453U 99025DBR 25302.69998117  .00001617  00000-0  10441-2 0  9991
2 32453  99.3683 211.1769 0099278 327.6196  31.8900 14.02069693928115
Epoch: 2025-10-29T16:47Z
TLE epoch observation values (Epoch: 2025-10-29T16:47:58.373Z)
Latitude
-0.00005°
Longitude
-79.08567°
Altitude
828.459 km
Speed
7.47 km/s
True Right ascension
14h 04m 42s
True Declination
0° 00' 00"
Sunlit
Object was in daylight at epoch
Visualization orbit readout
Latitude
Unknown
Longitude
Unknown
Altitude
Unknown
Speed
Unknown
Apparent Right ascension
Unknown
Apparent Declination
Unknown
Sunlit
N/A
Visualization observer readout
Local Sidereal Time
04:19:10
Azimuth
Unknown
Elevation
Unknown
Doppler factor
Unknown
Orbital elements
Apogee altitude
955.947 km
Perigee altitude
811.756 km
Semi-major axis
7,261.989 km
Eccentricity
0.00993
Inclination
99.3683°
RAAN
211.1769°
Arg. of periapsis
327.6196°
True anomaly
32.49739°
Mean anomaly
31.89°
Eccentric anomaly
32.19305°
Mean motion
3.50719 °/min
Orbital period
102.65 mins
BSTAR
0.0010441
Loading maneuver chart data...
Computing Atmospheric mass density...
Loading historical data...
Loading historical data...
Loading historical data...
Loading historical data...
Loading historical data...
Loading historical data...
Loading historical data...

Documentation

Showing up to 5 results
|